contact:dominique.lefevre@mio.osupytheas.fr, maurice.libes@osupytheas.fr, didier.mallarino@osupytheas.fr
Project:EMSO http://www.emso-fr.org/EMSO-France
Depth: 2436.0 m
Title:EMSO Ligure Ouest : Data MII capteur MICROCAT
DateTime_Computer,Latitude,Longitude,Temperature,Conductivity,Pressure,DateTime_Instrument
DateTime_Computer,Latitude,Longitude,degC,S m-1,dbar,DateTime_Instrument
2019-09-12T00:00:33Z,42.805,6.029,13.2969,4.59997,2469.9,2019-9-12T02:00:56Z
2019-09-12T00:03:36Z,42.805,6.029,13.2974,4.59998,2469.9,2019-9-12T02:03:59Z
2019-09-12T00:06:39Z,42.805,6.029,13.2968,4.59981,2469.9,2019-9-12T02:07:02Z
2019-09-12T00:09:43Z,42.805,6.029,13.2967,4.59988,2469.947,2019-9-12T02:10:06Z
2019-09-12T00:12:46Z,42.805,6.029,13.2985,4.59999,2469.923,2019-9-12T02:13:09Z
2019-09-12T00:15:49Z,42.805,6.029,13.2965,4.59999,2469.947,2019-9-12T02:16:12Z
2019-09-12T00:18:52Z,42.805,6.029,13.2973,4.59978,2469.937,2019-9-12T02:19:15Z
2019-09-12T00:21:56Z,42.805,6.029,13.2967,4.59995,2469.923,2019-9-12T02:22:18Z
2019-09-12T00:24:59Z,42.805,6.029,13.2962,4.59987,2469.914,2019-9-12T02:25:22Z
2019-09-12T00:28:02Z,42.805,6.029,13.2967,4.59990,2469.9,2019-9-12T02:28:25Z
2019-09-12T00:31:05Z,42.805,6.029,13.2978,4.60007,2469.947,2019-9-12T02:31:28Z
2019-09-12T00:34:08Z,42.805,6.029,13.2971,4.59997,2469.9,2019-9-12T02:34:31Z
2019-09-12T00:37:12Z,42.805,6.029,13.2969,4.60019,2469.9,2019-9-12T02:37:34Z
2019-09-12T00:40:15Z,42.805,6.029,13.2965,4.60001,2469.937,2019-9-12T02:40:38Z
2019-09-12T00:43:18Z,42.805,6.029,13.2970,4.60002,2469.937,2019-9-12T02:43:41Z
2019-09-12T00:46:21Z,42.805,6.029,13.2966,4.59986,2469.923,2019-9-12T02:46:44Z
2019-09-12T00:49:24Z,42.805,6.029,13.2964,4.59986,2469.89,2019-9-12T02:49:47Z
2019-09-12T00:52:28Z,42.805,6.029,13.2971,4.59988,2469.923,2019-9-12T02:52:50Z
2019-09-12T00:55:31Z,42.805,6.029,13.2977,4.59997,2469.914,2019-9-12T02:55:54Z
2019-09-12T00:58:34Z,42.805,6.029,13.2962,4.59975,2469.937,2019-9-12T02:58:57Z
2019-09-12T01:01:37Z,42.805,6.029,13.2966,4.59985,2469.914,2019-9-12T03:02:00Z
2019-09-12T01:04:41Z,42.805,6.029,13.2979,4.59992,2469.9,2019-9-12T03:05:03Z
2019-09-12T01:07:44Z,42.805,6.029,13.2978,4.59996,2469.937,2019-9-12T03:08:07Z
2019-09-12T01:10:47Z,42.805,6.029,13.2967,4.59988,2469.937,2019-9-12T03:11:10Z
2019-09-12T01:13:50Z,42.805,6.029,13.2971,4.59981,2469.923,2019-9-12T03:14:13Z
2019-09-12T01:16:53Z,42.805,6.029,13.2967,4.59994,2469.9,2019-9-12T03:17:16Z
2019-09-12T01:19:57Z,42.805,6.029,13.2970,4.60002,2469.9,2019-9-12T03:20:20Z
2019-09-12T01:23:00Z,42.805,6.029,13.2978,4.59995,2469.947,2019-9-12T03:23:23Z
2019-09-12T01:26:03Z,42.805,6.029,13.2969,4.59993,2469.923,2019-9-12T03:26:26Z
2019-09-12T01:29:06Z,42.805,6.029,13.2971,4.60015,2469.9,2019-9-12T03:29:29Z
2019-09-12T01:32:10Z,42.805,6.029,13.2964,4.59987,2469.914,2019-9-12T03:32:32Z
2019-09-12T01:35:13Z,42.805,6.029,13.2970,4.59999,2469.9,2019-9-12T03:35:36Z
2019-09-12T01:38:16Z,42.805,6.029,13.2967,4.59991,2469.947,2019-9-12T03:38:39Z
2019-09-12T01:41:19Z,42.805,6.029,13.2974,4.59991,2469.914,2019-9-12T03:41:42Z
2019-09-12T01:44:22Z,42.805,6.029,13.2983,4.60010,2469.9,2019-9-12T03:44:45Z
2019-09-12T01:47:26Z,42.805,6.029,13.2981,4.60003,2469.923,2019-9-12T03:47:48Z
2019-09-12T01:50:29Z,42.805,6.029,13.2962,4.59995,2469.914,2019-9-12T03:50:52Z
2019-09-12T01:53:32Z,42.805,6.029,13.2970,4.59989,2469.923,2019-9-12T03:53:55Z
2019-09-12T01:56:35Z,42.805,6.029,13.2964,4.59976,2469.876,2019-9-12T03:56:58Z
2019-09-12T01:59:39Z,42.805,6.029,13.2961,4.59979,2469.9,2019-9-12T04:00:02Z
2019-09-12T02:02:42Z,42.805,6.029,13.2972,4.60001,2469.923,2019-9-12T04:03:05Z
2019-09-12T02:05:45Z,42.805,6.029,13.2967,4.59991,2469.923,2019-9-12T04:06:08Z
2019-09-12T02:08:48Z,42.805,6.029,13.2967,4.59983,2469.923,2019-9-12T04:09:11Z
2019-09-12T02:11:51Z,42.805,6.029,13.2971,4.59981,2469.923,2019-9-12T04:12:14Z
2019-09-12T02:14:55Z,42.805,6.029,13.2973,4.59994,2469.9,2019-9-12T04:15:18Z
2019-09-12T02:17:58Z,42.805,6.029,13.2974,4.59999,2469.914,2019-9-12T04:18:21Z
2019-09-12T02:21:01Z,42.805,6.029,13.2971,4.59983,2469.937,2019-9-12T04:21:24Z
2019-09-12T02:24:04Z,42.805,6.029,13.2964,4.59996,2469.923,2019-9-12T04:24:27Z
2019-09-12T02:27:08Z,42.805,6.029,13.2963,4.59988,2469.96,2019-9-12T04:27:30Z
2019-09-12T02:30:11Z,42.805,6.029,13.2964,4.59986,2469.947,2019-9-12T04:30:34Z
2019-09-12T02:33:14Z,42.805,6.029,13.2964,4.59992,2469.947,2019-9-12T04:33:37Z
2019-09-12T02:36:17Z,42.805,6.029,13.2979,4.60001,2469.923,2019-9-12T04:36:40Z
2019-09-12T02:39:20Z,42.805,6.029,13.2975,4.59986,2469.96,2019-9-12T04:39:43Z
2019-09-12T02:42:24Z,42.805,6.029,13.2964,4.60005,2469.937,2019-9-12T04:42:47Z
2019-09-12T02:45:27Z,42.805,6.029,13.2964,4.59991,2469.96,2019-9-12T04:45:50Z
2019-09-12T02:48:30Z,42.805,6.029,13.2970,4.60001,2469.96,2019-9-12T04:48:53Z
2019-09-12T02:51:33Z,42.805,6.029,13.2976,4.60002,2469.914,2019-9-12T04:51:56Z
2019-09-12T02:54:37Z,42.805,6.029,13.2966,4.59988,2469.923,2019-9-12T04:54:59Z
2019-09-12T02:57:40Z,42.805,6.029,13.2970,4.60006,2469.947,2019-9-12T04:58:03Z
2019-09-12T03:00:43Z,42.805,6.029,13.2973,4.59997,2469.96,2019-9-12T05:01:06Z
2019-09-12T03:03:46Z,42.805,6.029,13.2977,4.59986,2469.947,2019-9-12T05:04:09Z
2019-09-12T03:06:50Z,42.805,6.029,13.2970,4.60003,2469.984,2019-9-12T05:07:12Z
2019-09-12T03:09:53Z,42.805,6.029,13.2961,4.59991,2469.923,2019-9-12T05:10:16Z
2019-09-12T03:12:56Z,42.805,6.029,13.2972,4.60009,2469.947,2019-9-12T05:13:19Z
2019-09-12T03:15:59Z,42.805,6.029,13.2963,4.60025,2469.984,2019-9-12T05:16:22Z
2019-09-12T03:19:03Z,42.805,6.029,13.2968,4.60006,2469.96,2019-9-12T05:19:25Z
2019-09-12T03:22:06Z,42.805,6.029,13.2973,4.59998,2469.947,2019-9-12T05:22:29Z
2019-09-12T03:25:09Z,42.805,6.029,13.2961,4.59984,2469.947,2019-9-12T05:25:32Z
2019-09-12T03:28:12Z,42.805,6.029,13.2961,4.59985,2469.97,2019-9-12T05:28:35Z
2019-09-12T03:31:16Z,42.805,6.029,13.2965,4.59977,2469.97,2019-9-12T05:31:38Z
2019-09-12T03:34:19Z,42.805,6.029,13.2962,4.59973,2469.96,2019-9-12T05:34:42Z
2019-09-12T03:37:22Z,42.805,6.029,13.2964,4.59999,2469.947,2019-9-12T05:37:45Z
2019-09-12T03:40:25Z,42.805,6.029,13.2962,4.59979,2469.97,2019-9-12T05:40:48Z
2019-09-12T03:43:28Z,42.805,6.029,13.2972,4.60010,2469.947,2019-9-12T05:43:51Z
2019-09-12T03:46:32Z,42.805,6.029,13.2979,4.59999,2469.97,2019-9-12T05:46:55Z
2019-09-12T03:49:35Z,42.805,6.029,13.2966,4.59985,2469.984,2019-9-12T05:49:58Z
2019-09-12T03:52:38Z,42.805,6.029,13.2967,4.60011,2469.947,2019-9-12T05:53:01Z
2019-09-12T03:55:42Z,42.805,6.029,13.2971,4.59985,2469.947,2019-9-12T05:56:04Z
2019-09-12T03:58:45Z,42.805,6.029,13.2974,4.60016,2469.984,2019-9-12T05:59:08Z
2019-09-12T04:01:48Z,42.805,6.029,13.2964,4.60013,2469.984,2019-9-12T06:02:11Z
2019-09-12T04:04:51Z,42.805,6.029,13.2967,4.60011,2469.97,2019-9-12T06:05:14Z
2019-09-12T04:07:55Z,42.805,6.029,13.2969,4.59983,2470.007,2019-9-12T06:08:17Z
2019-09-12T04:10:58Z,42.805,6.029,13.2974,4.59991,2469.993,2019-9-12T06:11:21Z
2019-09-12T04:14:01Z,42.805,6.029,13.2974,4.59984,2469.97,2019-9-12T06:14:24Z
2019-09-12T04:17:04Z,42.805,6.029,13.2967,4.59986,2469.97,2019-9-12T06:17:27Z
2019-09-12T04:20:07Z,42.805,6.029,13.2969,4.60001,2469.97,2019-9-12T06:20:30Z
2019-09-12T04:23:11Z,42.805,6.029,13.2967,4.60000,2469.984,2019-9-12T06:23:34Z
2019-09-12T04:26:14Z,42.805,6.029,13.2968,4.59976,2469.997,2019-9-12T06:26:37Z
2019-09-12T04:29:17Z,42.805,6.029,13.2972,4.60003,2470.007,2019-9-12T06:29:40Z
2019-09-12T04:32:20Z,42.805,6.029,13.2971,4.60022,2470.007,2019-9-12T06:32:43Z
2019-09-12T04:35:24Z,42.805,6.029,13.2966,4.60002,2469.993,2019-9-12T06:35:46Z
2019-09-12T04:38:27Z,42.805,6.029,13.2978,4.60016,2469.97,2019-9-12T06:38:50Z
2019-09-12T04:41:30Z,42.805,6.029,13.2965,4.59984,2469.993,2019-9-12T06:41:53Z
2019-09-12T04:44:33Z,42.805,6.029,13.2976,4.59981,2470.007,2019-9-12T06:44:56Z
2019-09-12T04:47:37Z,42.805,6.029,13.2981,4.60016,2470.017,2019-9-12T06:47:59Z
2019-09-12T04:50:40Z,42.805,6.029,13.2972,4.60004,2470.03,2019-9-12T06:51:03Z
2019-09-12T04:53:43Z,42.805,6.029,13.2974,4.60020,2469.993,2019-9-12T06:54:06Z
2019-09-12T04:56:46Z,42.805,6.029,13.2965,4.60006,2470.007,2019-9-12T06:57:09Z
2019-09-12T04:59:50Z,42.805,6.029,13.2967,4.60011,2469.993,2019-9-12T07:00:13Z
2019-09-12T05:02:53Z,42.805,6.029,13.2976,4.60002,2469.993,2019-9-12T07:03:16Z
2019-09-12T05:05:56Z,42.805,6.029,13.2964,4.59990,2470.03,2019-9-12T07:06:19Z
2019-09-12T05:08:59Z,42.805,6.029,13.2977,4.60009,2470.017,2019-9-12T07:09:22Z
2019-09-12T05:12:03Z,42.805,6.029,13.2967,4.60001,2470.03,2019-9-12T07:12:25Z
2019-09-12T05:15:06Z,42.805,6.029,13.2964,4.60001,2470.03,2019-9-12T07:15:29Z
2019-09-12T05:18:09Z,42.805,6.029,13.2969,4.60007,2470.053,2019-9-12T07:18:32Z
2019-09-12T05:21:12Z,42.805,6.029,13.2957,4.60003,2470.017,2019-9-12T07:21:35Z
2019-09-12T05:24:16Z,42.805,6.029,13.2971,4.60011,2470.04,2019-9-12T07:24:38Z
2019-09-12T05:27:19Z,42.805,6.029,13.2976,4.60012,2470.053,2019-9-12T07:27:42Z
2019-09-12T05:30:22Z,42.805,6.029,13.2969,4.60016,2470.007,2019-9-12T07:30:45Z
2019-09-12T05:33:25Z,42.805,6.029,13.2967,4.59993,2470.063,2019-9-12T07:33:48Z
2019-09-12T05:36:29Z,42.805,6.029,13.2973,4.59987,2470.04,2019-9-12T07:36:51Z
2019-09-12T05:39:32Z,42.805,6.029,13.2966,4.60014,2470.04,2019-9-12T07:39:55Z
2019-09-12T05:42:35Z,42.805,6.029,13.2967,4.59996,2470.017,2019-9-12T07:42:58Z
2019-09-12T05:45:38Z,42.805,6.029,13.2960,4.60005,2470.03,2019-9-12T07:46:01Z
2019-09-12T05:48:41Z,42.805,6.029,13.2964,4.59980,2470.03,2019-9-12T07:49:04Z
2019-09-12T05:51:45Z,42.805,6.029,13.2981,4.59982,2470.03,2019-9-12T07:52:07Z
2019-09-12T05:54:48Z,42.805,6.029,13.2964,4.60004,2470.063,2019-9-12T07:55:11Z
2019-09-12T05:57:51Z,42.805,6.029,13.2970,4.60007,2470.04,2019-9-12T07:58:14Z
2019-09-12T06:00:54Z,42.805,6.029,13.2967,4.59986,2470.017,2019-9-12T08:01:17Z
2019-09-12T06:03:58Z,42.805,6.029,13.2965,4.59999,2470.063,2019-9-12T08:04:20Z
2019-09-12T06:07:01Z,42.805,6.029,13.2973,4.59990,2470.017,2019-9-12T08:07:24Z
2019-09-12T06:10:04Z,42.805,6.029,13.2963,4.59976,2470.017,2019-9-12T08:10:27Z
2019-09-12T06:13:07Z,42.805,6.029,13.2968,4.59975,2470.077,2019-9-12T08:13:30Z
2019-09-12T06:16:10Z,42.805,6.029,13.2972,4.59986,2470.077,2019-9-12T08:16:33Z
2019-09-12T06:19:14Z,42.805,6.029,13.2965,4.59976,2470.03,2019-9-12T08:19:36Z
2019-09-12T06:22:17Z,42.805,6.029,13.2966,4.59981,2470.007,2019-9-12T08:22:40Z
2019-09-12T06:25:20Z,42.805,6.029,13.2972,4.59981,2469.993,2019-9-12T08:25:43Z
2019-09-12T06:28:23Z,42.805,6.029,13.2963,4.59989,2470.077,2019-9-12T08:28:46Z
2019-09-12T06:31:26Z,42.805,6.029,13.2958,4.59991,2470.03,2019-9-12T08:31:49Z
2019-09-12T06:34:30Z,42.805,6.029,13.2972,4.60001,2470.04,2019-9-12T08:34:52Z
2019-09-12T06:37:33Z,42.805,6.029,13.2965,4.59996,2470.053,2019-9-12T08:37:56Z
2019-09-12T06:40:36Z,42.805,6.029,13.2967,4.60001,2470.03,2019-9-12T08:40:59Z
2019-09-12T06:43:39Z,42.805,6.029,13.2964,4.59987,2470.063,2019-9-12T08:44:02Z
2019-09-12T06:46:42Z,42.805,6.029,13.2965,4.59976,2470.007,2019-9-12T08:47:05Z
2019-09-12T06:49:46Z,42.805,6.029,13.2972,4.59984,2470.04,2019-9-12T08:50:08Z
2019-09-12T06:52:49Z,42.805,6.029,13.2968,4.59994,2470.03,2019-9-12T08:53:12Z
2019-09-12T06:55:52Z,42.805,6.029,13.2978,4.60004,2470.04,2019-9-12T08:56:15Z
2019-09-12T06:58:55Z,42.805,6.029,13.2979,4.60004,2470.03,2019-9-12T08:59:18Z
2019-09-12T07:01:58Z,42.805,6.029,13.2971,4.60001,2470.03,2019-9-12T09:02:21Z
2019-09-12T07:05:02Z,42.805,6.029,13.2968,4.59992,2470.017,2019-9-12T09:05:24Z
2019-09-12T07:08:05Z,42.805,6.029,13.2976,4.59988,2470.003,2019-9-12T09:08:28Z
2019-09-12T07:11:08Z,42.805,6.029,13.2973,4.59996,2470.04,2019-9-12T09:11:31Z
2019-09-12T07:14:11Z,42.805,6.029,13.2978,4.59995,2469.993,2019-9-12T09:14:34Z
2019-09-12T07:17:14Z,42.805,6.029,13.2971,4.59999,2470.007,2019-9-12T09:17:37Z
2019-09-12T07:20:18Z,42.805,6.029,13.2961,4.60009,2469.993,2019-9-12T09:20:40Z
2019-09-12T07:23:21Z,42.805,6.029,13.2967,4.59984,2470.007,2019-9-12T09:23:44Z
2019-09-12T07:26:24Z,42.805,6.029,13.2964,4.59976,2470.007,2019-9-12T09:26:47Z
2019-09-12T07:29:27Z,42.805,6.029,13.2972,4.59983,2470.03,2019-9-12T09:29:50Z
2019-09-12T07:32:30Z,42.805,6.029,13.2968,4.59992,2469.984,2019-9-12T09:32:53Z
2019-09-12T07:35:34Z,42.805,6.029,13.2966,4.59999,2470.03,2019-9-12T09:35:56Z
2019-09-12T07:38:37Z,42.805,6.029,13.2963,4.59994,2470.007,2019-9-12T09:39:00Z
2019-09-12T07:41:40Z,42.805,6.029,13.2967,4.59990,2470.007,2019-9-12T09:42:03Z
2019-09-12T07:44:43Z,42.805,6.029,13.2970,4.60009,2470.03,2019-9-12T09:45:06Z
2019-09-12T07:47:46Z,42.805,6.029,13.2968,4.59995,2469.993,2019-9-12T09:48:09Z
2019-09-12T07:50:50Z,42.805,6.029,13.2964,4.59986,2470.03,2019-9-12T09:51:12Z
2019-09-12T07:53:53Z,42.805,6.029,13.2961,4.60004,2469.993,2019-9-12T09:54:16Z
2019-09-12T07:56:56Z,42.805,6.029,13.2968,4.59988,2469.984,2019-9-12T09:57:19Z
2019-09-12T08:00:00Z,42.805,6.029,13.2964,4.59985,2470.017,2019-9-12T10:00:22Z
2019-09-12T08:03:03Z,42.805,6.029,13.2960,4.60001,2469.984,2019-9-12T10:03:26Z
2019-09-12T08:06:06Z,42.805,6.029,13.2971,4.60031,2470.017,2019-9-12T10:06:29Z
2019-09-12T08:09:09Z,42.805,6.029,13.2968,4.59996,2469.993,2019-9-12T10:09:32Z
2019-09-12T08:12:12Z,42.805,6.029,13.2984,4.60003,2469.993,2019-9-12T10:12:35Z
2019-09-12T08:15:16Z,42.805,6.029,13.2983,4.60026,2470.03,2019-9-12T10:15:38Z
2019-09-12T08:18:19Z,42.805,6.029,13.2962,4.60014,2469.993,2019-9-12T10:18:42Z
2019-09-12T08:21:22Z,42.805,6.029,13.2959,4.60001,2469.97,2019-9-12T10:21:45Z
2019-09-12T08:24:25Z,42.805,6.029,13.2962,4.59989,2469.984,2019-9-12T10:24:48Z
2019-09-12T08:27:29Z,42.805,6.029,13.2965,4.59985,2469.984,2019-9-12T10:27:51Z
2019-09-12T08:30:32Z,42.805,6.029,13.2968,4.59986,2469.993,2019-9-12T10:30:55Z
2019-09-12T08:33:35Z,42.805,6.029,13.2970,4.59999,2469.984,2019-9-12T10:33:58Z
2019-09-12T08:36:38Z,42.805,6.029,13.2961,4.59990,2469.97,2019-9-12T10:37:01Z
2019-09-12T08:39:41Z,42.805,6.029,13.2975,4.59990,2469.97,2019-9-12T10:40:04Z
2019-09-12T08:42:44Z,42.805,6.029,13.2972,4.59997,2469.993,2019-9-12T10:43:07Z
2019-09-12T08:45:48Z,42.805,6.029,13.2966,4.60006,2470.007,2019-9-12T10:46:10Z
2019-09-12T08:48:51Z,42.805,6.029,13.2964,4.59990,2469.96,2019-9-12T10:49:14Z
2019-09-12T08:51:54Z,42.805,6.029,13.2985,4.60003,2469.97,2019-9-12T10:52:17Z
2019-09-12T08:54:57Z,42.805,6.029,13.2967,4.59982,2469.993,2019-9-12T10:55:20Z
2019-09-12T08:58:01Z,42.805,6.029,13.2970,4.59989,2469.97,2019-9-12T10:58:23Z
2019-09-12T09:01:04Z,42.805,6.029,13.2968,4.59986,2469.97,2019-9-12T11:01:27Z
2019-09-12T09:04:07Z,42.805,6.029,13.2969,4.59988,2469.96,2019-9-12T11:04:30Z
2019-09-12T09:07:10Z,42.805,6.029,13.2978,4.60003,2469.993,2019-9-12T11:07:33Z
2019-09-12T09:10:13Z,42.805,6.029,13.2971,4.59996,2469.993,2019-9-12T11:10:36Z
2019-09-12T09:13:17Z,42.805,6.029,13.2959,4.59989,2469.937,2019-9-12T11:13:39Z
2019-09-12T09:16:20Z,42.805,6.029,13.2965,4.60004,2469.96,2019-9-12T11:16:43Z
2019-09-12T09:19:23Z,42.805,6.029,13.2966,4.59983,2469.96,2019-9-12T11:19:46Z
2019-09-12T09:22:26Z,42.805,6.029,13.2960,4.59982,2469.984,2019-9-12T11:22:49Z
2019-09-12T09:25:29Z,42.805,6.029,13.2961,4.59975,2470.007,2019-9-12T11:25:52Z
2019-09-12T09:28:33Z,42.805,6.029,13.2969,4.59984,2469.947,2019-9-12T11:28:55Z
2019-09-12T09:31:36Z,42.805,6.029,13.2974,4.59999,2469.96,2019-9-12T11:31:59Z
2019-09-12T09:34:39Z,42.805,6.029,13.2964,4.60003,2469.923,2019-9-12T11:35:02Z
2019-09-12T09:37:42Z,42.805,6.029,13.2971,4.60026,2469.937,2019-9-12T11:38:05Z
2019-09-12T09:40:45Z,42.805,6.029,13.2982,4.60019,2469.947,2019-9-12T11:41:08Z
2019-09-12T09:43:49Z,42.805,6.029,13.2963,4.60002,2469.923,2019-9-12T11:44:12Z
2019-09-12T09:46:52Z,42.805,6.029,13.2969,4.59995,2469.923,2019-9-12T11:47:15Z
2019-09-12T09:49:55Z,42.805,6.029,13.2974,4.59992,2469.97,2019-9-12T11:50:18Z
2019-09-12T09:52:58Z,42.805,6.029,13.2968,4.59995,2469.937,2019-9-12T11:53:21Z
2019-09-12T09:56:01Z,42.805,6.029,13.3002,4.60014,2469.937,2019-9-12T11:56:24Z
2019-09-12T09:59:05Z,42.805,6.029,13.2968,4.59986,2469.923,2019-9-12T11:59:27Z
2019-09-12T10:02:08Z,42.805,6.029,13.2966,4.60030,2469.9,2019-9-12T12:02:31Z
2019-09-12T10:05:11Z,42.805,6.029,13.2978,4.59988,2469.9,2019-9-12T12:05:34Z
2019-09-12T10:08:14Z,42.805,6.029,13.2969,4.59984,2469.923,2019-9-12T12:08:37Z
2019-09-12T10:11:17Z,42.805,6.029,13.2970,4.59997,2469.937,2019-9-12T12:11:40Z
2019-09-12T10:14:21Z,42.805,6.029,13.2974,4.60013,2469.923,2019-9-12T12:14:43Z
2019-09-12T10:17:24Z,42.805,6.029,13.2968,4.59997,2469.923,2019-9-12T12:17:47Z
2019-09-12T10:20:27Z,42.805,6.029,13.2967,4.60010,2469.937,2019-9-12T12:20:50Z
2019-09-12T10:23:30Z,42.805,6.029,13.2964,4.59986,2469.937,2019-9-12T12:23:53Z
2019-09-12T10:26:34Z,42.805,6.029,13.2965,4.60010,2469.947,2019-9-12T12:26:56Z
2019-09-12T10:29:37Z,42.805,6.029,13.2974,4.59991,2469.914,2019-9-12T12:30:00Z
2019-09-12T10:32:40Z,42.805,6.029,13.2972,4.60000,2469.909,2019-9-12T12:33:03Z
2019-09-12T10:35:43Z,42.805,6.029,13.2990,4.59998,2469.923,2019-9-12T12:36:06Z
2019-09-12T10:38:46Z,42.805,6.029,13.2968,4.59995,2469.923,2019-9-12T12:39:09Z
2019-09-12T10:41:50Z,42.805,6.029,13.2974,4.60000,2469.937,2019-9-12T12:42:12Z
2019-09-12T10:44:53Z,42.805,6.029,13.2965,4.59997,2469.923,2019-9-12T12:45:16Z
2019-09-12T10:47:56Z,42.805,6.029,13.2971,4.59998,2469.923,2019-9-12T12:48:19Z
2019-09-12T10:50:59Z,42.805,6.029,13.2967,4.60015,2469.9,2019-9-12T12:51:22Z
2019-09-12T10:54:02Z,42.805,6.029,13.2963,4.59980,2469.914,2019-9-12T12:54:25Z
2019-09-12T10:57:06Z,42.805,6.029,13.2972,4.59987,2469.876,2019-9-12T12:57:29Z
2019-09-12T11:00:09Z,42.805,6.029,13.2965,4.59991,2469.923,2019-9-12T13:00:32Z
2019-09-12T11:03:12Z,42.805,6.029,13.2967,4.59996,2469.914,2019-9-12T13:03:35Z
2019-09-12T11:06:15Z,42.805,6.029,13.2967,4.60003,2469.914,2019-9-12T13:06:38Z
2019-09-12T11:09:19Z,42.805,6.029,13.2967,4.59991,2469.923,2019-9-12T13:09:41Z
2019-09-12T11:12:22Z,42.805,6.029,13.2967,4.59985,2469.923,2019-9-12T13:12:45Z
2019-09-12T11:15:25Z,42.805,6.029,13.2961,4.59986,2469.947,2019-9-12T13:15:48Z
2019-09-12T11:18:28Z,42.805,6.029,13.2965,4.60011,2469.9,2019-9-12T13:18:51Z
2019-09-12T11:21:31Z,42.805,6.029,13.2968,4.59988,2469.9,2019-9-12T13:21:54Z
2019-09-12T11:24:35Z,42.805,6.029,13.2968,4.59987,2469.914,2019-9-12T13:24:57Z
2019-09-12T11:27:38Z,42.805,6.029,13.2964,4.59994,2469.876,2019-9-12T13:28:01Z
2019-09-12T11:30:41Z,42.805,6.029,13.2971,4.60011,2469.9,2019-9-12T13:31:04Z
2019-09-12T11:33:44Z,42.805,6.029,13.2975,4.59991,2469.937,2019-9-12T13:34:07Z
2019-09-12T11:36:48Z,42.805,6.029,13.2968,4.59994,2469.9,2019-9-12T13:37:10Z
2019-09-12T11:39:51Z,42.805,6.029,13.2965,4.59979,2469.876,2019-9-12T13:40:14Z
2019-09-12T11:42:54Z,42.805,6.029,13.2968,4.59993,2469.876,2019-9-12T13:43:17Z
2019-09-12T11:45:57Z,42.805,6.029,13.2962,4.59984,2469.914,2019-9-12T13:46:20Z
2019-09-12T11:49:00Z,42.805,6.029,13.2962,4.60002,2469.914,2019-9-12T13:49:23Z
2019-09-12T11:52:04Z,42.805,6.029,13.2967,4.60005,2469.914,2019-9-12T13:52:26Z
2019-09-12T11:55:07Z,42.805,6.029,13.2967,4.59994,2469.9,2019-9-12T13:55:30Z
2019-09-12T11:58:10Z,42.805,6.029,13.2974,4.59992,2469.876,2019-9-12T13:58:33Z
2019-09-12T12:01:13Z,42.805,6.029,13.2963,4.59990,2469.914,2019-9-12T14:01:36Z
2019-09-12T12:04:17Z,42.805,6.029,13.2967,4.59979,2469.937,2019-9-12T14:04:39Z
2019-09-12T12:07:20Z,42.805,6.029,13.2968,4.59994,2469.89,2019-9-12T14:07:43Z
2019-09-12T12:10:23Z,42.805,6.029,13.2964,4.59993,2469.923,2019-9-12T14:10:46Z
2019-09-12T12:13:26Z,42.805,6.029,13.2972,4.60008,2469.9,2019-9-12T14:13:49Z
2019-09-12T12:16:29Z,42.805,6.029,13.2973,4.60006,2469.876,2019-9-12T14:16:52Z
2019-09-12T12:19:33Z,42.805,6.029,13.2958,4.59991,2469.853,2019-9-12T14:19:55Z
2019-09-12T12:22:36Z,42.805,6.029,13.2968,4.59981,2469.9,2019-9-12T14:22:59Z
2019-09-12T12:25:39Z,42.805,6.029,13.2982,4.60025,2469.9,2019-9-12T14:26:02Z
2019-09-12T12:28:42Z,42.805,6.029,13.2967,4.59991,2469.876,2019-9-12T14:29:05Z
2019-09-12T12:31:46Z,42.805,6.029,13.2966,4.59992,2469.867,2019-9-12T14:32:08Z
2019-09-12T12:34:49Z,42.805,6.029,13.2966,4.60000,2469.9,2019-9-12T14:35:12Z
2019-09-12T12:37:52Z,42.805,6.029,13.2975,4.60009,2469.9,2019-9-12T14:38:15Z
2019-09-12T12:40:55Z,42.805,6.029,13.2970,4.59992,2469.9,2019-9-12T14:41:18Z
2019-09-12T12:43:58Z,42.805,6.029,13.2965,4.60002,2469.89,2019-9-12T14:44:21Z
2019-09-12T12:47:02Z,42.805,6.029,13.2968,4.59996,2469.914,2019-9-12T14:47:24Z
2019-09-12T12:50:05Z,42.805,6.029,13.2976,4.60019,2469.876,2019-9-12T14:50:28Z
2019-09-12T12:53:08Z,42.805,6.029,13.2965,4.60003,2469.914,2019-9-12T14:53:31Z
2019-09-12T12:56:11Z,42.805,6.029,13.2971,4.59983,2469.914,2019-9-12T14:56:34Z
2019-09-12T12:59:14Z,42.805,6.029,13.2986,4.60001,2469.9,2019-9-12T14:59:37Z
2019-09-12T13:02:18Z,42.805,6.029,13.2986,4.60028,2469.914,2019-9-12T15:02:40Z
2019-09-12T13:05:21Z,42.805,6.029,13.3001,4.60022,2469.876,2019-9-12T15:05:44Z
2019-09-12T13:08:24Z,42.805,6.029,13.2970,4.60043,2469.89,2019-9-12T15:08:47Z
2019-09-12T13:11:27Z,42.805,6.029,13.2964,4.60005,2469.9,2019-9-12T15:11:50Z
2019-09-12T13:14:30Z,42.805,6.029,13.2974,4.59997,2469.876,2019-9-12T15:14:53Z
2019-09-12T13:17:34Z,42.805,6.029,13.2971,4.60026,2469.853,2019-9-12T15:17:56Z
2019-09-12T13:20:37Z,42.805,6.029,13.2972,4.60032,2469.9,2019-9-12T15:21:00Z
2019-09-12T13:23:40Z,42.805,6.029,13.2984,4.60033,2469.89,2019-9-12T15:24:03Z
2019-09-12T13:26:43Z,42.805,6.029,13.2996,4.60011,2469.867,2019-9-12T15:27:06Z
2019-09-12T13:29:47Z,42.805,6.029,13.2986,4.60015,2469.914,2019-9-12T15:30:09Z
2019-09-12T13:32:50Z,42.805,6.029,13.2994,4.60006,2469.914,2019-9-12T15:33:13Z
2019-09-12T13:35:53Z,42.805,6.029,13.2979,4.60042,2469.853,2019-9-12T15:36:16Z
2019-09-12T13:38:56Z,42.805,6.029,13.2974,4.60033,2469.89,2019-9-12T15:39:19Z
2019-09-12T13:41:59Z,42.805,6.029,13.2977,4.60049,2469.867,2019-9-12T15:42:22Z
2019-09-12T13:45:03Z,42.805,6.029,13.2991,4.60032,2469.853,2019-9-12T15:45:25Z
2019-09-12T13:48:06Z,42.805,6.029,13.2998,4.60030,2469.9,2019-9-12T15:48:29Z
2019-09-12T13:51:09Z,42.805,6.029,13.2968,4.60023,2469.876,2019-9-12T15:51:32Z
2019-09-12T13:54:12Z,42.805,6.029,13.2969,4.60005,2469.9,2019-9-12T15:54:35Z
2019-09-12T13:57:16Z,42.805,6.029,13.2975,4.60033,2469.937,2019-9-12T15:57:38Z
2019-09-12T14:00:19Z,42.805,6.029,13.2981,4.59999,2469.9,2019-9-12T16:00:42Z
2019-09-12T14:03:22Z,42.805,6.029,13.2970,4.60052,2469.937,2019-9-12T16:03:45Z
2019-09-12T14:06:25Z,42.805,6.029,13.2976,4.60034,2469.923,2019-9-12T16:06:48Z
2019-09-12T14:09:28Z,42.805,6.029,13.2977,4.60050,2469.96,2019-9-12T16:09:51Z
2019-09-12T14:12:32Z,42.805,6.029,13.2985,4.60043,2469.876,2019-9-12T16:12:54Z
2019-09-12T14:15:35Z,42.805,6.029,13.2996,4.60011,2469.914,2019-9-12T16:15:58Z
2019-09-12T14:18:38Z,42.805,6.029,13.2970,4.60031,2469.914,2019-9-12T16:19:01Z
2019-09-12T14:21:41Z,42.805,6.029,13.2984,4.60032,2469.9,2019-9-12T16:22:04Z
2019-09-12T14:24:45Z,42.805,6.029,13.2969,4.60046,2469.9,2019-9-12T16:25:07Z
2019-09-12T14:27:48Z,42.805,6.029,13.2973,4.60021,2469.923,2019-9-12T16:28:11Z
2019-09-12T14:30:51Z,42.805,6.029,13.2974,4.60036,2469.923,2019-9-12T16:31:14Z
2019-09-12T14:33:54Z,42.805,6.029,13.2988,4.60045,2469.9,2019-9-12T16:34:17Z
2019-09-12T14:36:57Z,42.805,6.029,13.2996,4.60062,2469.9,2019-9-12T16:37:20Z
2019-09-12T14:40:01Z,42.805,6.029,13.2981,4.60041,2469.9,2019-9-12T16:40:23Z
2019-09-12T14:43:04Z,42.805,6.029,13.2983,4.60039,2469.96,2019-9-12T16:43:27Z
2019-09-12T14:46:07Z,42.805,6.029,13.2978,4.60052,2469.96,2019-9-12T16:46:30Z
2019-09-12T14:49:10Z,42.805,6.029,13.2970,4.60057,2469.914,2019-9-12T16:49:33Z
2019-09-12T14:52:14Z,42.805,6.029,13.2973,4.60061,2469.914,2019-9-12T16:52:37Z
2019-09-12T14:55:17Z,42.805,6.029,13.2974,4.60029,2469.947,2019-9-12T16:55:40Z
2019-09-12T14:58:20Z,42.805,6.029,13.2982,4.60029,2469.914,2019-9-12T16:58:43Z
2019-09-12T15:01:23Z,42.805,6.029,13.2966,4.60021,2469.96,2019-9-12T17:01:46Z
2019-09-12T15:04:26Z,42.805,6.029,13.3000,4.60037,2469.984,2019-9-12T17:04:49Z
2019-09-12T15:07:30Z,42.805,6.029,13.2979,4.60055,2469.984,2019-9-12T17:07:52Z
2019-09-12T15:10:33Z,42.805,6.029,13.2966,4.60031,2469.947,2019-9-12T17:10:56Z
2019-09-12T15:13:36Z,42.805,6.029,13.2998,4.60027,2469.96,2019-9-12T17:13:59Z